Location: Augustenthal
(51.7167°N, 10.2833°E)
Time: 20:07:11
(UTC+00:00)

SAR-Lupe-2 - Pass Details

Date: 18 May 2021
Orbit: 482 x 484 km, 98.1° (Epoch: 13 June)

Event Time Altitude Azimuth Distance (km) Brightness Sun altitude
Rises 22:39:42 0° 18° (NNE) 2,563 8.4 -18.1°
Reaches altitude 10° 22:41:49 10° 23° (NNE) 1,677 7.1 -18.1°
Maximum altitude 22:45:21 52° 101° (E) 608 3.8 -18.2°
Enters shadow 22:45:56 46° 138° (SE) 661 3.8 -18.2°
